Regional Weather Roundup
Issued by NWS

Home | Current Version | Previous Version | Text Only | Print | Product List | Glossary Off
Versions: 1 2 3 4 5 6 7 8 9 10 11 12 13 14 15 16 17 18 19 20 21 22 23 24 25 26 27 28 29 30 31 32 33 34 35 36 37 38 39 40 41 42 43 44 45 46 47 48 49 50

000
ASUS44 KMEG 221210
RWRTN
TENNESSEE HOURLY STATE WEATHER ROUNDUP
NATIONAL WEATHER SERVICE MEMPHIS TN
600 AM CST WED NOV 22 2017

TNZ002-004-019-021-049-052-054-088>092-221300-
WEST TENNESSEE

CITY           SKY/WX    TMP DP  RH WIND       PRES   REMARKS
MEMPHIS INTL   CLEAR     36  26  67 N14G26    30.31R WCI  27
NWS MEMPHIS      N/A     35 N/A N/A MISG        N/A
JACKSON        CLEAR     33  26  75 N12       30.31R WCI  24
DYERSBURG      CLEAR     31  24  75 N8        30.35R WCI  23
SOMERVILLE     CLEAR     36  25  64 N13G18    30.28R WCI  27
COVINGTON      CLEAR     32  25  74 N8G15     30.34R WCI  25
UNION CITY     CLEAR     30  23  74 N13       30.33R WCI  20
BOLIVAR        MOCLDY    36  27  69 NW9       30.27R WCI  29
PARIS          CLEAR     28  23  80 N7        30.29R WCI  21
HUNTINGDON     CLEAR     32  25  74 N3        30.30R
LEXINGTON      CLEAR     34  25  69 N13G18    30.26R WCI  25
SELMER         CLOUDY    36  27  69 N12G18    30.25R WCI  27
SAVANNAH       CLOUDY    37  28  70 N12       30.24R WCI  30
$$

TNZ008-025-027-028-033-062-065-066-221300-
NORTH MIDDLE TENNESSEE

CITY           SKY/WX    TMP DP  RH WIND       PRES   REMARKS
NASHVILLE      PTCLDY    33  25  72 N9G18     30.25R WCI  25
PORTLAND       CLEAR     30  27  86 N7        30.25R WCI  23
CLARKSVILLE    CLEAR     30  22  72 N12       30.29R WCI  20
SMYRNA         CLEAR     35  28  75 N10       30.26R WCI  27
COOKEVILLE     CLOUDY    36  32  87 N7G15     30.17R WCI  30
GALLATIN       CLEAR     34  27  75 N7G15     30.27R WCI  28
CROSSVILLE     CLEAR     36  31  82 N10       30.13R WCI  28
$$

TNZ061-075-076-078-094-096-097-221300-
SOUTH MIDDLE TENNESSEE

CITY           SKY/WX    TMP DP  RH WIND       PRES   REMARKS
FAYETTEVILLE   CLEAR     39  34  81 N13G20    30.15R WCI  32
TULLAHOMA      PTCLDY    36  32  87 N9G16     30.15R WCI  29
WINCHESTER     CLEAR     37  34  87 N7        30.16R WCI  32
MCMINNVILLE    MOCLDY    37  32  81 N8        30.18R WCI  31
COLUMBIA       CLOUDY    36  27  69 N7        30.22R WCI  30
SHELBYVILLE    PTCLDY    36  32  87 N12       30.20R WCI  27
$$

TNZ017-018-042-046-047-221300-
NORTHEAST TENNESSEE

CITY           SKY/WX    TMP DP  RH WIND       PRES   REMARKS
TRI CITIES     CLEAR     41  35  79 NW5       30.08R
ELIZABETHTON   MOCLDY    39  37  93 CALM      30.07R
$$

TNZ012-013-036-069-073-074-221300-
CENTRAL EAST TENNESSEE

CITY           SKY/WX    TMP DP  RH WIND       PRES   REMARKS
KNOXVILLE      PTCLDY    43  38  82 N8        30.10R
OAK RIDGE      CLEAR     37  36  96 CALM      30.13R
DOWNTOWN KNOXV FOG       37  37 100 CALM      30.12R VSB 1/4
GATLINBURG     CLEAR     37  36  93 CALM      30.10R
MORRISTOWN     PTCLDY    45  34  65 N7        30.09R
JACKSBORO      PTCLDY    43  34  70 VRB5      30.17R
$$

TNZ083-085-099-221300-
SOUTHEAST TENNESSEE

CITY           SKY/WX    TMP DP  RH WIND       PRES   REMARKS
CHATTANOOGA    CLEAR     41  35  79 N3        30.12R
DAYTON         SUNNY     43  37  81 CALM      30.12R
$$

SKY/WX REPORTED AS FAIR MEANS FEW OR NO CLOUDS BELOW
12 THOUSAND FEET.





USA.gov is the U.S. government's official web portal to all federal, state and local government web resources and services.